Location: Caracas
(10.5033°N, 66.8422°W)
Time: 07:26:29
(UTC-04:00)

Tiangong 1 - Pass Details

Date: 19 November 2017
Orbit: 283 x 307 km, 42.8° (Epoch: 25 November)

Event Time Altitude Azimuth Distance (km) Brightness Sun altitude
Exits shadow 05:12:48 74° 85° (E) 296 0.5 -17.5°
Drops below altitude 10° 05:15:11 10° 131° (SE) 1,122 4.5 -16.9°
Sets 05:17:08 0° 132° (SE) 1,944 5.8 -16.5°
